Weather in Goroka

Papua New Guinea     6°06′13″S   145°23′35″E
temp.,
°C
wind,
m/s
gust,
m/s
humid.,
%
clouds,
%
prec.,
mm/h
press.,
hPa
HPBL,
m
11 april, sun
sun1101:00+14ssw2496100 0.0 101586
04:00+14ssw2495100 0.0 1014100
07:00+15ssw249394 0.0 1015127
10:00+17ssw248471 0.0 1015409
13:00+19s0282100 1.3 1011755
16:00+18s129286 4.1 1011208
19:00+15ssw2297100 1.0 101450
22:00+14ssw2397100 1.1 101681
12 april, mon
mon1201:00+14ssw2395100 0.0 1014115
04:00+14ssw249597 0.1 1013119
07:00+14ssw249594 0.0 1014131
10:00+16ssw1294100 0.2 1016171
13:00+16ssw2394100 0.3 1013232
16:00+15ssw2495100 0.5 1012193
19:00+14ssw2495100 0.3 1014153
22:00+14ssw2497100 1.2 1016136
13 april, tue
tue1301:00+13ssw3598100 1.8 1015159
04:00+13ssw3597100 2.1 1013140
07:00+13ssw3595100 0.0 1015141
10:00+20ssw2367100 0.0 1014728
13:00+22e135999 0.4 10091330
16:00+19ene128479 3.7 1009124
19:00+15ssw219460 2.3 101224
22:00+13ssw249875 2.6 101598
14 april, wed
wed1401:00+13ssw349789 0.0 1014129
04:00+13ssw349668 0.0 1013144
07:00+13ssw3494100 0.0 1014148
10:00+20ssw235848 0.0 1013920
13:00+23ene034985 0.0 10091814
16:00+18sse127986 0.6 1009154
19:00+15s218998 0.8 101225
22:00+14ssw239382 0.9 101476
15 april, thu
thu1501:00+14ssw239385 0.0 101399
04:00+13ssw2492100 0.0 1012114
07:00+13ssw249178 0.0 1014120
10:00+21s125373 0.0 1012929
13:00+23ene125183 0.0 10081580
16:00+17ene128799 0.6 1009177
19:00+15ssw2295100 1.6 101271
22:00+15ssw229588 1.9 101466